CZ-2C R/B, 40262

Orbit data source: Space-Track

CZ-2C R/B, 40262 is space debris in SSO originally from a launch on Sun, 28 Sep 2014 UTC launched from the Jiuquan Satellite Launch Center, China (JSC). Debris objects in space refer to the collection of defunct objects orbiting the Earth. Examples of debris include non-operational satellites, rocket bodies, and fragments generated from explosions, collisions, or faulty payload assembly.

Loading next visibility...
Identifier
40262, 2014-059B
Orbit
SSO
Country
Flag of CNCN / PRC
Related business
Manufacturer
CALT
Mission
Spacecraft
Bus & Motor
CZ-2 STAGE 2, Unknown motor
Mass
~3,800 kg wet, ~3,800 kg dry
Launch date (UTC)
2014-09-28 (12 years ago)
Launch vehicle
Unknown
Launch site
Jiuquan Satellite Launch Center, China (JSC)
Object type
Payload
Rocket body
Debris
Shape & HBR
Cyl, 4.2 m
Radar Cross Section
26.048 m², Large (>1 m²)

Expand to show TLE details & history
Last TLE update: 2 days ago

TLE from 2 days ago
0 CZ-2C R/B
1 40262U 14059B   26171.33892802  .00000481  00000-0  76322-4 0  9992
2 40262  98.3593  32.9723 0041482 173.0990 187.0798 14.76461244630083
Epoch: 2026-06-20T08:08Z
TLE epoch observation values (Epoch: 2026-06-20T08:08:03.380Z)
Latitude
-0.00011°
Longitude
2.40326°
Altitude
672.42 km
Speed
7.505 km/s
True Right ascension
02h 11m 53s
True Declination
0° 00' 00"
Sunlit
Object was in daylight at epoch
Visualization orbit readout
Latitude
Unknown
Longitude
Unknown
Altitude
Unknown
Speed
Unknown
Apparent Right ascension
Unknown
Apparent Declination
Unknown
Sunlit
N/A
Visualization observer readout
Local Sidereal Time
21:34:57
Azimuth
Unknown
Elevation
Unknown
Doppler factor
Unknown
Orbital elements
Apogee altitude
666.686 km
Perigee altitude
608.481 km
Semi-major axis
7,015.72 km
Eccentricity
0.00415
Inclination
98.3593°
RAAN
32.9723°
Arg. of periapsis
173.099°
True anomaly
187.02151°
Mean anomaly
187.0798°
Eccentric anomaly
187.05063°
Mean motion
3.69347 °/min
Orbital period
97.47 mins
BSTAR
0.000076322
Loading maneuver chart data...
Computing Atmospheric mass density...
Loading historical data...
Loading historical data...
Loading historical data...
Loading historical data...
Loading historical data...
Loading historical data...
Loading historical data...
Other satellites on launch #59 in the year 2014 (2014-09-28 UTC)

Documentation

Showing up to 5 results
|